[Date Prev][Date Next][Thread Prev][Thread Next] - [Date Index][Thread Index][Author Index]
2 Line ISS Keps 11-21
- Subject: [sarex] 2 Line ISS Keps 11-21
- From: "Dave Larsen Ph.D." <doc@xxxxxxxxxxx>
- Date: Thu, 21 Nov 2002 03:03:43 -0800
ISS
1 25544U 98067A 02325.20345506 .00033777 00000-0 42269-3 0 4007
2 25544 51.6383 344.5995 0013489 160.9168 244.1554 15.59370557228467
----
Via the sarex mailing list at AMSAT.ORG courtesy of AMSAT-NA.
To unsubscribe, send "unsubscribe sarex" to Majordomo@amsat.org
AMSAT Home